User: anonymous   Login
Location: Churchill
(58.7670°N, 94.1670°W)
Time: 19:12:18
(UTC-06:00)
Language:

Cosmos 2142 Rocket - Orbit

View from above orbital plane
View from above orbital plane
View from above satellite
View from above satellite

Ground track
Ground track

The orbit data is extracted from the following two-line orbital elements,

1 21231U 91029B   17320.71164670 +.00000084 +00000-0 +70521-4 0  9996
2 21231 082.9524 355.6938 0035674 161.5241 328.9746 13.75754556334495
Epoch (UTC): 16 November 2017 17:04:46
Eccentricity: 0.0035674
inclination: 82.9524°
perigee height: 953 km
apogee height: 1005 km
right ascension of ascending node: 355.6938°
argument of perigee: 161.5241°
revolutions per day: 13.75754556
mean anomaly at epoch: 328.9746°
orbit number at epoch: 33449

The dashed part of the orbit path shows where the satellite is in the earth's shadow,  

DLR